#timestamp,LO_Frequency,Hit,StdDev 
1570327215.6,286047011.9,N
1570327235.4,286046996.6,N
1570327255.3,286046995.1,N
1570327275.1,286046996.5,N
1570327295.8,286046995.9,N
1570327315.7,286046992.4,N
1570327335.5,286046992.1,N
1570327355.4,286046998.7,N
1570327375.2,286046999.4,N
1570327395.0,286046998.8,N
1570327395.9,286046998.8,N
1570327415.8,286046999.4,N
1570327435.6,286047001.0,N
1570327455.5,286047006.0,N
1570327475.3,286046998.9,N
1570327495.1,286046999.2,N
1570327515.9,286046995.1,N
1570327535.7,286046987.1,N
1570327555.5,286046992.6,N
1570327575.4,286046993.7,N
1570327595.2,286046993.7,N
1570327615.0,286046995.8,N
1570327616.0,286046995.8,N
1570327635.8,286046992.6,N
1570327655.6,286046988.6,N
1570327675.5,286046990.5,N
1570327695.3,286046997.8,N
1570327715.1,286046999.3,N
1570327735.9,286046993.7,N
1570327755.7,286046999.2,N
1570327775.6,286046991.1,N
1570327795.4,286046991.7,N
1570327815.2,286046999.8,N
1570327835.1,286046999.4,N
1570327836.0,286046999.4,N
1570327855.8,286046997.1,N
1570327875.7,286047002.2,N
1570327895.5,286046999.0,N
1570327915.3,286047002.6,N
1570327935.2,286046996.9,N
1570327955.0,286046994.9,N
1570327955.9,286046994.9,N
1570327975.8,286046999.9,N
1570327995.6,286047000.0,N
1570328015.4,286046996.9,N
1570328035.3,286046993.7,N
1570328055.1,286046993.5,N
1570328075.8,286046995.8,N
1570328095.7,286046989.2,Y
1570328115.5,286046992.4,P
1570328135.4,286046993.4,P
1570328155.2,286046996.7,N
1570328175.0,286046990.3,Y
1570328175.9,286046990.3,P
1570328195.8,286046997.8,N
1570328215.6,286046995.8,N
1570328235.5,286046990.3,Y
1570328255.3,286046988.5,P
1570328275.1,286046989.0,P
1570328295.9,286046993.0,N
1570328315.7,286046991.8,Y
1570328335.5,286046998.2,P
1570328355.4,286046999.4,N
1570328375.2,286047003.8,N
1570328395.1,286047002.4,N
1570328396.0,286047002.4,N
1570328415.8,286047000.3,N
1570328435.6,286046998.6,N
1570328455.5,286046995.2,N
1570328475.3,286046994.6,N
1570328495.2,286047004.0,N
1570328515.9,286047000.2,N
1570328535.7,286046999.7,N
1570328555.6,286046999.3,N
1570328575.4,286046996.1,N
1570328595.2,286047001.2,N
1570328615.1,286046996.7,N
1570328616.0,286046996.7,N
1570328635.8,286046994.0,N
1570328655.7,286046990.6,N
1570328675.5,286046991.6,N
1570328695.3,286046989.4,N
1570328715.2,286046996.2,N
1570328735.0,286046992.3,N
1570328735.9,286046992.3,N
1570328755.8,286046990.1,N
1570328775.6,286046998.9,N
1570328795.5,286046997.7,N
1570328815.3,286047002.2,N
1570328835.1,286047005.5,N
1570328855.9,286047005.9,N
1570328875.7,286047000.1,N
1570328895.5,286046995.6,N
1570328915.4,286046995.5,N
1570328935.2,286046993.4,N
1570328955.1,286046992.8,N
1570328956.0,286046992.8,N
1570328975.8,286046988.0,N
1570328995.6,286046985.6,Y
1570329015.5,286046988.4,P
1570329035.3,286046985.1,P
1570329055.2,286046986.6,N
1570329075.9,286046988.8,N
1570329095.7,286046984.4,Y
1570329115.6,286046996.0,P
1570329135.4,286047000.9,N
1570329155.2,286046996.9,N
1570329175.1,286046999.2,N
1570329176.0,286046999.2,N
1570329195.8,286047000.8,N
1570329215.7,286047001.5,N
1570329235.5,286047002.3,N
1570329255.3,286047001.6,N
1570329275.2,286047003.5,N
1570329295.0,286046999.8,N
1570329295.9,286046999.8,N
1570329315.7,286047005.5,N
1570329335.6,286047006.0,N
1570329355.4,286047005.8,N
1570329375.3,286047006.0,N
1570329395.1,286047006.8,N
1570329396.0,286047006.8,N
1570329415.8,286047001.6,N
1570329435.7,286047002.7,N
1570329455.5,286047004.8,N
1570329475.3,286047006.7,N
1570329495.2,286047010.9,N
1570329515.0,286047008.3,N
1570329515.9,286047008.3,N
1570329535.8,286047008.5,N
1570329555.6,286047009.8,N
1570329575.4,286047012.7,N
1570329595.3,286047013.0,N
1570329615.1,286047009.1,N
1570329635.9,286047004.7,N
1570329655.7,286047005.2,N
1570329675.5,286047019.5,Y
1570329695.4,286047016.2,P
1570329715.2,286047011.3,N
1570329735.0,286047012.8,N
1570329735.9,286047012.8,Y
1570329755.8,286047005.2,P
1570329775.6,286047005.3,N
1570329795.5,286047003.9,N
1570329815.3,286047006.0,N
1570329835.1,286047008.1,Y
1570329855.9,286046997.8,P
1570329875.7,286046999.9,N
1570329895.6,286046999.6,N
1570329915.4,286046996.3,N
1570329935.2,286046995.5,N
1570329955.1,286046994.3,N
1570329956.0,286046994.3,N
1570329975.8,286046988.0,Y
1570329995.7,286046996.3,P
1570330015.5,286046995.8,P
1570330035.3,286046997.1,P
1570330055.2,286047000.9,N
1570330075.0,286047004.3,N
1570330075.9,286047004.3,N
1570330095.8,286047001.8,N
1570330115.6,286047000.3,N
1570330135.4,286047003.7,N
1570330155.3,286047006.5,N
1570330175.1,286047008.5,N
1570330195.8,286047014.6,Y
1570330215.7,286047013.2,P
1570330235.5,286047013.0,N
1570330255.4,286047011.1,N
1570330275.2,286047013.2,N
1570330295.0,286047009.7,N
1570330295.9,286047009.7,N
1570330315.8,286047004.7,N
1570330335.6,286047001.5,N
1570330355.4,286047007.2,N
1570330375.3,286047006.4,N
1570330395.1,286047008.6,N
1570330415.9,286047010.0,N
1570330435.7,286047013.4,Y
1570330455.5,286047001.3,P
1570330475.4,286047003.3,N
1570330495.2,286047000.7,N
1570330515.1,286047001.2,N
1570330516.0,286047001.2,N
1570330535.8,286047002.2,N
1570330555.6,286047001.6,N
1570330575.5,286047000.2,N
1570330595.3,286047008.8,Y
1570330615.2,286047007.5,P
1570330635.9,286047003.2,N
1570330655.7,286047004.2,N
1570330675.6,286047004.8,N
1570330695.4,286047005.1,N
1570330715.2,286047005.6,Y
1570330735.1,286046998.5,P
1570330736.0,286046998.5,N
1570330755.8,286046997.6,N
1570330775.7,286046995.7,N
1570330795.5,286046997.2,N
